This is the latest recevied weather packets stored in our database for station/object W2EH. If no packets are shown the sender has not sent any weather packets the latest 10 day(s).
| Time | Temp. | Humidity | Pressure | Rain* | Wind** | Luminosity | Snow |
|---|---|---|---|---|---|---|---|
| 1777865201 | 15.56° C | 73% | 1016.2 hPa | 0 mm | - | 0 W/m² | - |
| 1777864898 | 15.56° C | 72% | 1016.3 hPa | 0 mm | - | 0 W/m² | - |
| 1777864596 | 15.56° C | 71% | 1016.3 hPa | 0 mm | - | 0 W/m² | - |
| 1777864292 | 16.11° C | 71% | 1016.3 hPa | 0 mm | - | 0 W/m² | - |
| 1777863989 | 16.11° C | 70% | 1016.1 hPa | 0 mm | - | 0 W/m² | - |
| 1777863685 | 16.11° C | 69% | 1016.3 hPa | 0 mm | - | 0 W/m² | - |
| 1777863382 | 16.11° C | 68% | 1016.2 hPa | 0 mm | - | 0 W/m² | - |
| 1777863079 | 16.67° C | 66% | 1016.3 hPa | 0 mm | - | 0 W/m² | - |
| 1777862777 | 16.67° C | 65% | 1016.2 hPa | 0 mm | - | 0 W/m² | - |
| 1777862473 | 16.67° C | 66% | 1016.4 hPa | 0 mm | - | 0 W/m² | - |
| 1777862169 | 17.22° C | 64% | 1016.4 hPa | 0 mm | - | 0 W/m² | - |
| 1777861865 | 17.22° C | 64% | 1016.1 hPa | 0 mm | - | 0 W/m² | - |
| 1777861562 | 17.78° C | 62% | 1016.1 hPa | 0 mm | - | 0 W/m² | - |
| 1777861258 | 17.78° C | 61% | 1016.2 hPa | 0 mm | - | 0 W/m² | - |
| 1777860956 | 17.78° C | 59% | 1016.2 hPa | 0 mm | - | 0 W/m² | - |
| 1777860652 | 17.78° C | 57% | 1016.1 hPa | 0 mm | - | 0 W/m² | - |
| 1777860349 | 18.33° C | 57% | 1016 hPa | 0 mm | - | 0 W/m² | - |
| 1777860046 | 18.89° C | 58% | 1016 hPa | 0 mm | - | 0 W/m² | - |
| 1777859742 | 18.89° C | 55% | 1015.8 hPa | 0 mm | - | 0 W/m² | - |
| 1777859438 | 18.89° C | 54% | 1015.8 hPa | 0 mm | - | 0 W/m² | - |
| 1777859134 | 19.44° C | 53% | 1015.7 hPa | 0 mm | - | 0 W/m² | - |
| 1777858832 | 20° C | 50% | 1015.6 hPa | 0 mm | - | 0 W/m² | - |
| 1777858529 | 20.56° C | 50% | 1015.6 hPa | 0 mm | - | 0 W/m² | - |
| 1777858226 | 20.56° C | 48% | 1015.3 hPa | 0 mm | - | 0 W/m² | - |
| 1777857924 | 21.11° C | 46% | 1015.6 hPa | 0 mm | - | 0 W/m² | - |
* Rain latest hour (hover to see other rain measurements)
** Current wind speed in m/s (hover to see current wind gust speed)